OE8NDR-11 Weather Reports


Display with metric or nautical units.
time (UTC)temp
F
wind
direction
speed
MPH
gust
MPH
rain 1hr
in
rain 24hr
in
rain mn
in
humidity
%
barometer
mb
20221006002840 60 250 4.0 7.0 0.00 0.00 0.00 60 1025.8
20221006002340 60 234 3.0 7.0 0.00 0.00 0.00 59 1025.8
20221006001840 60 243 3.0 4.0 0.00 0.00 0.00 59 1025.8
20221006001340 59 240 3.0 5.0 0.00 0.00 0.00 60 1025.7
20221006000840 59 211 4.0 4.0 0.00 0.00 0.00 60 1025.7
20221006000340 60 182 4.0 7.0 0.00 0.00 0.00 59 1025.8
20221005235840 61 196 4.0 7.0 0.00 0.00 0.00 58 1025.6
20221005235340 61 164 5.0 7.0 0.00 0.00 0.00 57 1025.5
20221005234840 62 208 5.0 8.0 0.00 0.00 0.00 55 1025.6
20221005234340 63 246 4.0 8.0 0.00 0.00 0.00 53 1025.5
20221005233840 63 253 4.0 8.0 0.00 0.00 0.00 53 1025.5
20221005233340 63 259 5.0 9.0 0.00 0.00 0.00 54 1025.6
20221005232840 63 232 5.0 11.0 0.00 0.00 0.00 53 1025.5
20221005232340 63 245 5.0 8.0 0.00 0.00 0.00 53 1025.4
20221005231840 63 241 7.0 10.0 0.00 0.00 0.00 53 1025.3
20221005231340 63 232 6.0 10.0 0.00 0.00 0.00 53 1025.4
20221005230840 63 252 7.0 9.0 0.00 0.00 0.00 53 1025.4
20221005230340 63 244 8.0 11.0 0.00 0.00 0.00 52 1025.4
20221005225840 63 261 8.0 12.0 0.00 0.00 0.00 53 1025.5
20221005225340 63 255 9.0 13.0 0.00 0.00 0.00 52 1025.5
20221005224840 64 262 8.0 15.0 0.00 0.00 0.00 52 1025.6
20221005224340 63 258 7.0 12.0 0.00 0.00 0.00 52 1025.7
20221005223840 63 279 6.0 13.0 0.00 0.00 0.00 52 1025.7
20221005223340 64 250 7.0 10.0 0.00 0.00 0.00 52 1025.7
20221005222840 64 246 9.0 13.0 0.00 0.00 0.00 51 1025.6
20221005222340 64 254 8.0 13.0 0.00 0.00 0.00 51 1025.7
20221005221840 64 262 7.0 11.0 0.00 0.00 0.00 51 1025.7
20221005221340 64 261 9.0 14.0 0.00 0.00 0.00 50 1025.8
20221005220840 64 248 9.0 15.0 0.00 0.00 0.00 50 1025.8
20221005220340 64 247 9.0 11.0 0.00 0.00 0.00 50 1026.0
20221005215840 64 261 9.0 11.0 0.00 0.00 0.00 50 1026.0
20221005215340 65 251 10.0 13.0 0.00 0.00 0.00 49 1026.0
20221005214840 65 247 10.0 19.0 0.00 0.00 0.00 49 1025.9
20221005214340 64 257 7.0 16.0 0.00 0.00 0.00 50 1026.1
20221005213840 63 263 4.0 12.0 0.00 0.00 0.00 52 1026.0
20221005213340 63 323 4.0 9.0 0.00 0.00 0.00 52 1026.0
20221005212840 64 223 2.0 10.0 0.00 0.00 0.00 51 1026.0
20221005212340 64 267 0.0 4.0 0.00 0.00 0.00 50 1026.0
20221005211840 64 311 2.0 4.0 0.00 0.00 0.00 49 1025.9
20221005211340 64 311 3.0 7.0 0.00 0.00 0.00 49 1026.0
20221005210840 64 344 4.0 6.0 0.00 0.00 0.00 49 1025.9
20221005210340 65 284 3.0 7.0 0.00 0.00 0.00 48 1026.0
20221005205840 65 299 4.0 5.0 0.00 0.00 0.00 48 1025.9
20221005205340 65 307 5.0 5.0 0.00 0.00 0.00 48 1026.0
20221005204840 65 313 5.0 8.0 0.00 0.00 0.00 48 1025.9
20221005204340 65 282 7.0 8.0 0.00 0.00 0.00 48 1026.0
20221005203840 65 276 10.0 15.0 0.00 0.00 0.00 48 1025.9
20221005203340 66 271 10.0 14.0 0.00 0.00 0.00 47 1025.9
20221005202840 65 240 8.0 17.0 0.00 0.00 0.00 47 1025.8
20221005202340 65 273 8.0 13.0 0.00 0.00 0.00 48 1025.8
20221005201840 65 275 9.0 16.0 0.00 0.00 0.00 47 1025.8
20221005201340 65 244 7.0 14.0 0.00 0.00 0.00 47 1025.8
20221005200840 65 248 6.0 14.0 0.00 0.00 0.00 47 1025.7
20221005200340 65 284 5.0 11.0 0.00 0.00 0.00 48 1025.7
20221005195840 65 286 5.0 9.0 0.00 0.00 0.00 48 1025.7
20221005195340 66 268 7.0 15.0 0.00 0.00 0.00 47 1025.7
20221005194840 65 250 9.0 14.0 0.00 0.00 0.00 47 1025.6
20221005194340 65 257 8.0 17.0 0.00 0.00 0.00 48 1025.6
20221005193840 65 230 7.0 12.0 0.00 0.00 0.00 47 1025.5
20221005193340 66 229 9.0 11.0 0.00 0.00 0.00 47 1025.5
20221005192840 66 245 10.0 19.0 0.00 0.00 0.00 47 1025.5
20221005192340 66 257 7.0 18.0 0.00 0.00 0.00 47 1025.4
20221005191840 66 238 7.0 10.0 0.00 0.00 0.00 47 1025.4
20221005191340 66 232 6.0 13.0 0.00 0.00 0.00 46 1025.4
20221005190840 66 246 3.0 11.0 0.00 0.00 0.00 46 1025.4
20221005190340 66 237 4.0 6.0 0.00 0.00 0.00 47 1025.5
20221005185840 66 227 5.0 9.0 0.00 0.00 0.00 45 1025.3
20221005185340 67 222 5.0 7.0 0.00 0.00 0.00 45 1025.4
20221005184840 66 284 5.0 12.0 0.00 0.00 0.00 45 1025.3
20221005184340 66 280 5.0 7.0 0.00 0.00 0.00 46 1025.2
20221005183840 66 243 6.0 9.0 0.00 0.00 0.00 46 1025.1
20221005183340 66 259 6.0 11.0 0.00 0.00 0.00 46 1025.1
20221005182840 66 263 5.0 10.0 0.00 0.00 0.00 46 1025.1
20221005182340 66 286 5.0 9.0 0.00 0.00 0.00 46 1025.1
20221005181840 66 255 5.0 13.0 0.00 0.00 0.00 47 1025.0
20221005181340 66 264 6.0 10.0 0.00 0.00 0.00 46 1025.0
20221005180840 66 272 6.0 11.0 0.00 0.00 0.00 46 1024.9
20221005180340 66 272 5.0 9.0 0.00 0.00 0.00 46 1024.9
20221005175840 66 263 7.0 12.0 0.00 0.00 0.00 46 1024.8
20221005175341 66 258 6.0 12.0 0.00 0.00 0.00 45 1024.7
20221005174840 66 270 4.0 9.0 0.00 0.00 0.00 46 1024.9
20221005174340 66 259 3.0 11.0 0.00 0.00 0.00 46 1024.9
20221005173840 65 249 3.0 10.0 0.00 0.00 0.00 47 1024.9
20221005173341 64 246 2.0 5.0 0.00 0.00 0.00 49 1024.9
20221005172841 64 90 2.0 3.0 0.00 0.00 0.00 52 1024.8
20221005172341 64 90 2.0 4.0 0.00 0.00 0.00 53 1024.8
20221005171841 64 109 2.0 3.0 0.00 0.00 0.00 51 1024.9
20221005171341 64 117 3.0 4.0 0.00 0.00 0.00 51 1025.0
20221005170841 65 110 4.0 8.0 0.00 0.00 0.00 53 1024.9
20221005170341 65 115 5.0 8.0 0.00 0.00 0.00 50 1024.7
20221005165841 65 106 5.0 8.0 0.00 0.00 0.00 51 1024.7
20221005165341 66 147 4.0 10.0 0.00 0.00 0.00 48 1024.7
20221005164841 66 159 2.0 5.0 0.00 0.00 0.00 48 1024.5
20221005164341 66 188 1.0 3.0 0.00 0.00 0.00 48 1024.5
20221005163841 66 97 1.0 3.0 0.00 0.00 0.00 49 1024.5
20221005163341 65 89 2.0 4.0 0.00 0.00 0.00 49 1024.4
20221005162841 66 88 1.0 4.0 0.00 0.00 0.00 52 1024.4
20221005162341 66 241 1.0 3.0 0.00 0.00 0.00 49 1024.3
20221005161841 66 249 2.0 4.0 0.00 0.00 0.00 48 1024.3
20221005161341 66 244 3.0 4.0 0.00 0.00 0.00 48 1024.2
20221005160841 67 236 3.0 7.0 0.00 0.00 0.00 48 1024.2
20221005160341 67 223 3.0 5.0 0.00 0.00 0.00 47 1024.2
20221005155841 67 218 3.0 5.0 0.00 0.00 0.00 47 1024.0
20221005155341 67 246 3.0 8.0 0.00 0.00 0.00 47 1024.0
20221005154841 68 215 3.0 6.0 0.00 0.00 0.00 47 1024.0
20221005154341 68 225 4.0 6.0 0.00 0.00 0.00 46 1024.0
20221005153841 68 247 4.0 7.0 0.00 0.00 0.00 46 1023.9
20221005153341 69 238 4.0 10.0 0.00 0.00 0.00 47 1023.8
20221005152841 69 234 5.0 10.0 0.00 0.00 0.00 46 1023.8
20221005152341 69 229 5.0 8.0 0.00 0.00 0.00 45 1023.8
20221005151841 70 208 5.0 7.0 0.00 0.00 0.00 45 1023.7
20221005151341 70 199 5.0 7.0 0.00 0.00 0.00 44 1023.8
20221005150841 70 233 5.0 7.0 0.00 0.00 0.00 45 1023.8
20221005150341 70 218 6.0 10.0 0.00 0.00 0.00 44 1024.0
20221005145841 70 235 6.0 8.0 0.00 0.00 0.00 45 1023.9
20221005145341 70 239 5.0 9.0 0.00 0.00 0.00 45 1023.8
20221005144841 70 238 4.0 7.0 0.00 0.00 0.00 45 1023.7
20221005144341 70 216 4.0 7.0 0.00 0.00 0.00 46 1023.7
20221005143841 70 249 5.0 8.0 0.00 0.00 0.00 46 1023.8
20221005143341 71 241 8.0 10.0 0.00 0.00 0.00 45 1023.9
20221005142841 71 235 8.0 12.0 0.00 0.00 0.00 43 1024.0
20221005142341 71 238 6.0 10.0 0.00 0.00 0.00 44 1023.9
20221005141841 71 227 6.0 10.0 0.00 0.00 0.00 44 1023.9
20221005141341 71 229 8.0 11.0 0.00 0.00 0.00 44 1023.9
20221005140841 71 267 9.0 12.0 0.00 0.00 0.00 42 1024.0
20221005140341 71 245 8.0 12.0 0.00 0.00 0.00 43 1023.9
20221005135841 71 213 8.0 15.0 0.00 0.00 0.00 41 1024.0
20221005135341 71 235 9.0 12.0 0.00 0.00 0.00 43 1024.1
20221005134841 71 188 9.0 15.0 0.00 0.00 0.00 43 1024.1
20221005134341 71 236 8.0 13.0 0.00 0.00 0.00 44 1024.2
20221005133841 71 205 9.0 11.0 0.00 0.00 0.00 43 1024.3
20221005133341 71 238 12.0 17.0 0.00 0.00 0.00 42 1024.2
20221005132841 71 261 11.0 17.0 0.00 0.00 0.00 43 1024.1
20221005132341 71 206 11.0 14.0 0.00 0.00 0.00 43 1024.2
20221005131841 71 245 10.0 16.0 0.00 0.00 0.00 42 1024.2
20221005131341 71 248 9.0 16.0 0.00 0.00 0.00 43 1024.2
20221005130841 71 260 10.0 15.0 0.00 0.00 0.00 44 1024.2
20221005130341 71 269 11.0 15.0 0.00 0.00 0.00 42 1024.1
20221005125841 71 259 10.0 16.0 0.00 0.00 0.00 42 1024.1
20221005125341 71 248 11.0 17.0 0.00 0.00 0.00 42 1024.1
20221005124841 71 221 11.0 18.0 0.00 0.00 0.00 40 1024.2
20221005124341 71 254 13.0 17.0 0.00 0.00 0.00 42 1024.2
20221005123841 70 238 13.0 19.0 0.00 0.00 0.00 41 1024.1
20221005123341 70 267 13.0 17.0 0.00 0.00 0.00 40 1024.1
20221005122841 71 258 12.0 19.0 0.00 0.00 0.00 42 1024.1
20221005122341 71 242 13.0 20.0 0.00 0.00 0.00 41 1024.2
20221005121841 70 277 12.0 18.0 0.00 0.00 0.00 40 1024.2
20221005121341 71 262 11.0 15.0 0.00 0.00 0.00 41 1024.3
20221005120841 71 265 13.0 16.0 0.00 0.00 0.00 41 1024.5
20221005120341 70 236 14.0 18.0 0.00 0.00 0.00 41 1024.5
20221005115841 70 238 13.0 18.0 0.00 0.00 0.00 41 1024.5
20221005115341 70 260 13.0 19.0 0.00 0.00 0.00 40 1024.6
20221005114841 70 240 12.0 17.0 0.00 0.00 0.00 40 1024.6
20221005114341 70 231 13.0 19.0 0.00 0.00 0.00 43 1024.5
20221005113841 70 284 14.0 20.0 0.00 0.00 0.00 40 1024.6
20221005113341 70 227 13.0 18.0 0.00 0.00 0.00 42 1024.6
20221005112841 70 258 12.0 18.0 0.00 0.00 0.00 40 1024.6
20221005112341 70 258 11.0 18.0 0.00 0.00 0.00 42 1024.7
20221005111841 70 242 12.0 18.0 0.00 0.00 0.00 43 1024.7
20221005111341 69 267 13.0 19.0 0.00 0.00 0.00 42 1024.8
20221005110841 69 248 13.0 18.0 0.00 0.00 0.00 43 1024.7
20221005110341 69 236 13.0 22.0 0.00 0.00 0.00 42 1024.8
20221005105841 69 242 12.0 16.0 0.00 0.00 0.00 42 1024.6
20221005105341 70 265 10.0 17.0 0.00 0.00 0.00 41 1024.7
20221005104841 69 269 10.0 18.0 0.00 0.00 0.00 43 1024.8
20221005104341 69 241 10.0 15.0 0.00 0.00 0.00 44 1024.9
20221005103841 69 276 10.0 15.0 0.00 0.00 0.00 43 1024.8
20221005103341 69 238 10.0 19.0 0.00 0.00 0.00 43 1024.9
20221005102841 69 257 10.0 16.0 0.00 0.00 0.00 47 1024.8
20221005102341 69 265 12.0 15.0 0.00 0.00 0.00 44 1024.8
20221005101841 68 270 12.0 20.0 0.00 0.00 0.00 42 1024.8
20221005101341 68 269 11.0 17.0 0.00 0.00 0.00 44 1024.9
20221005100841 68 259 11.0 21.0 0.00 0.00 0.00 42 1024.8
20221005100341 69 254 12.0 20.0 0.00 0.00 0.00 41 1024.8